Weather History for Rexburg, ID

Change the Weather History Date:

Sunday, August 18, 2013

  Actual Average Record
Temperature  
Mean Temperature 75 °F 66 °F  
Max Temperature 90 °F 84 °F 92 °F (2001)
Min Temperature 59 °F 49 °F 41 °F (2002)
Degree Days  
Heating Degree Days 0 1  
Month to date heating degree days 0 11  
Since 1 June heating degree days 117 213  
Since 1 July heating degree days 0 41  
Cooling Degree Days 10 3  
Month to date cooling degree days 94 66  
Year to date cooling degree days 348 180  
Since 1 June cooling degree days 346 176  
Growing Degree Days 25 (Base 50)    
Moisture  
Dew Point 39 °F    
Average Humidity 33    
Maximum Humidity 52    
Minimum Humidity 14    
Precipitation  
Precipitation 0.00 in 0.03 in 0.27 in (2005)
Month to date precipitation T 0.50  
Year to date precipitation 5.12 8.46  
Sea Level Pressure  
Sea Level Pressure 29.94 in    
Wind  
Wind Speed 8 mph (SSW)    
Max Wind Speed 16 mph    
Max Gust Speed 23 mph    
Visibility 10 miles    
Events      
T = Trace of Precipitation, MM = Missing Value Source: NWS Daily Summary

Daily Weather History Graph

Daily Weather History Graph

Search for Another Location

Airport:

Trip Planner

Search our weather history database for the weather conditions in past years. The results will help you decide how hot, cold, wet, or windy it might be!

Date:

Astronomy

Aug. 18, 2013 Rise Set
Actual Time 6:35 AM MDT 8:25 PM MDT
Civil Twilight 6:04 AM MDT 8:56 PM MDT
Nautical Twilight 5:26 AM MDT 9:34 PM MDT
Astronomical Twilight 4:45 AM MDT 10:14 PM MDT
Moon 6:36 PM MDT (8/18) 3:46 AM MDT (8/18)
Length of Visible Light 14h 52m
Length of Day
13h 50m
Waxing Gibbous, 92% of the Moon is Illuminated
Aug 18
Waxing Gibbous
Aug 20
Full
Aug 28
Last Quarter
Sep 5
New
Sep 12
First Quarter

Hourly Weather History & Observations

Time (MDT) Temp. Dew Point Humidity Pressure Visibility Wind Dir Wind Speed Gust Speed Precip Events Conditions
12:53 AM 75.0 °F 35.1 °F 23% 29.88 in 10.0 mi South 10.4 mph - N/A   Clear
1:53 AM 69.1 °F 37.9 °F 32% 29.90 in 10.0 mi South 9.2 mph - N/A   Clear
2:53 AM 71.1 °F 39.0 °F 31% 29.89 in 10.0 mi South 8.1 mph - N/A   Clear
3:53 AM 66.0 °F 43.0 °F 43% 29.93 in 10.0 mi NNW 5.8 mph - N/A   Partly Cloudy
4:53 AM 64.0 °F 41.0 °F 43% 29.94 in 10.0 mi Calm Calm - N/A   Clear
5:53 AM 62.1 °F 43.0 °F 50% 29.96 in 10.0 mi Calm Calm - N/A   Clear
6:53 AM 60.1 °F 43.0 °F 53% 29.99 in 10.0 mi Calm Calm - N/A   Clear
7:53 AM 63.0 °F 44.1 °F 50% 30.01 in 10.0 mi Calm Calm - N/A   Clear
8:53 AM 64.9 °F 45.0 °F 48% 30.03 in 10.0 mi NE 4.6 mph - N/A   Clear
9:53 AM 73.0 °F 45.0 °F 37% 30.02 in 10.0 mi SSW 5.8 mph - N/A   Clear
10:53 AM 79.0 °F 44.1 °F 29% 30.01 in 10.0 mi SSW 8.1 mph - N/A   Clear
11:53 AM 82.0 °F 45.0 °F 27% 29.99 in 10.0 mi SSW 11.5 mph - N/A   Clear
12:53 PM 84.0 °F 43.0 °F 24% 29.98 in 10.0 mi SW 9.2 mph 19.6 mph N/A   Clear
1:53 PM 87.1 °F 39.0 °F 18% 29.97 in 10.0 mi SW 8.1 mph 16.1 mph N/A   Clear
2:53 PM 89.1 °F 37.9 °F 16% 29.95 in 10.0 mi South 10.4 mph - N/A   Clear
3:53 PM 90.0 °F 33.1 °F 13% 29.94 in 10.0 mi SW 13.8 mph 20.7 mph N/A   Clear
4:53 PM 89.1 °F 33.1 °F 14% 29.92 in 10.0 mi South 9.2 mph 18.4 mph N/A   Clear
5:53 PM 89.1 °F 34.0 °F 14% 29.91 in 10.0 mi South 10.4 mph - N/A   Clear
6:53 PM 87.1 °F 35.1 °F 16% 29.90 in 10.0 mi South 9.2 mph - N/A   Clear
7:53 PM 82.0 °F 39.0 °F 22% 29.90 in 10.0 mi SSE 5.8 mph - N/A   Clear
8:53 PM 80.1 °F 37.0 °F 21% 29.90 in 10.0 mi South 11.5 mph - N/A   Clear
9:53 PM 79.0 °F 34.0 °F 20% 29.91 in 10.0 mi South 10.4 mph - N/A   Clear
10:53 PM 77.0 °F 36.0 °F 23% 29.91 in 10.0 mi South 12.7 mph - N/A   Clear
11:53 PM 75.9 °F 36.0 °F 23% 29.91 in 10.0 mi South 12.7 mph - N/A   Clear